Date,TemperatureHighF,TemperatureAvgF,TemperatureLowF,DewpointHighF,DewpointAvgF,DewpointLowF,HumidityHigh,HumidityAvg,HumidityLow,PressureMaxIn,PressureMinIn,WindSpeedMaxMPH,WindSpeedAvgMPH,GustSpeedMaxMPH,PrecipitationSumIn
2013-1-1,52,51,49,52,50,48,99,98,96,30.19,30.09,11,5,16,0.06
2013-1-2,47,46,45,44,43,32,92,88,84,30.31,29.97,10,4,14,0.00
2013-1-3,42,42,42,41,41,41,98,98,98,30.33,30.32,5,3,7,0.00
2013-1-9,63,61,52,62,60,46,99,98,82,30.34,30.06,4,1,8,0.02
2013-1-11,72,67,64,71,66,63,99,99,99,29.98,29.96,6,1,11,0.00
2013-1-12,78,73,71,75,72,70,99,97,85,30.00,29.79,14,4,24,0.03
2013-1-13,73,56,46,73,56,45,99,99,94,30.16,29.75,14,6,29,0.02
2013-1-14,46,42,38,46,41,38,99,98,92,30.23,30.08,13,6,23,0.02
2013-1-15,38,37,37,38,37,37,99,99,99,30.12,30.07,8,4,13,0.00
2013-1-16,41,34,31,38,34,30,99,98,89,30.28,30.15,10,1,17,0.00
2013-1-17,32,31,31,31,31,30,99,99,99,30.30,30.26,2,0,4,0.00
2013-1-18,30,30,30,30,30,29,99,99,99,30.54,30.53,0,0,1,0.00
2013-9-16,93,84,77,75,72,66,91,71,43,30.00,29.94,4,0,5,0.00
2013-9-17,98,83,71,76,72,64,99,74,35,30.05,29.91,10,2,15,0.00
2013-9-18,97,83,74,77,72,63,99,75,36,30.00,29.90,9,2,15,0.00
2013-9-19,92,82,74,78,75,70,99,80,53,29.98,29.86,10,2,18,0.00
2013-9-20,80,77,74,80,77,74,99,99,99,29.89,29.71,12,2,21,0.15
2013-9-21,76,74,72,75,72,70,99,96,88,29.77,29.72,14,5,21,0.16
2013-9-22,85,74,65,70,60,52,91,63,34,29.81,29.72,12,5,17,0.23
2013-9-23,91,76,64,73,64,58,90,68,50,29.80,29.72,7,2,12,0.00
2013-9-29,92,77,72,74,72,62,99,86,37,29.98,29.88,8,1,14,0.52
2013-9-30,76,74,72,76,73,72,99,99,99,29.91,29.81,9,1,18,1.13
2013-10-1,96,77,72,81,75,59,99,93,65,29.95,29.85,8,1,16,4.19
2013-10-2,92,79,72,79,72,67,99,84,46,29.99,29.87,6,2,11,0.00
2013-10-3,93,80,72,79,73,64,99,82,41,29.97,29.86,8,1,11,0.00
2013-10-4,93,79,72,82,75,72,99,88,54,29.96,29.86,8,1,16,0.00
2013-10-5,93,82,73,78,76,72,99,82,54,29.92,29.83,7,2,11,0.00
2013-10-6,77,69,58,75,58,40,99,72,28,29.99,29.84,12,4,24,0.00
2013-10-7,81,64,50,55,51,47,99,69,31,30.08,29.98,10,2,20,0.00
2013-10-8,83,65,50,60,55,50,99,75,35,30.08,29.97,8,1,11,0.00
2013-10-9,88,67,51,62,55,50,99,72,28,30.08,29.98,6,1,8,0.00
2013-10-10,88,70,54,64,58,54,99,72,33,30.07,29.94,6,1,9,0.00
2013-10-11,92,75,60,74,65,58,99,75,34,29.99,29.89,8,1,12,0.00
2013-10-12,92,79,70,79,72,64,99,82,43,30.10,29.90,12,2,21,0.00
2013-10-13,82,74,69,73,70,68,99,89,65,30.15,30.00,8,2,13,0.00
2013-10-14,90,77,70,74,68,62,99,76,42,30.10,29.97,6,1,9,0.00
2013-10-15,90,78,69,76,65,56,99,71,34,29.99,29.88,10,1,13,0.00
2013-10-16,86,76,67,77,67,61,99,76,46,29.94,29.85,8,1,12,0.00
2013-10-17,76,67,57,66,61,56,95,81,53,30.04,29.91,8,2,14,0.00
2013-10-18,75,63,55,63,55,48,99,79,40,30.03,29.85,9,2,15,0.00
2013-10-19,68,61,53,62,56,46,99,83,57,30.05,29.89,11,3,20,0.00
2013-10-20,81,60,44,52,45,29,99,67,16,30.08,29.93,6,1,10,0.00
2013-10-21,75,63,52,63,57,46,95,82,41,30.01,29.89,6,1,10,0.00
2013-10-22,73,64,52,67,58,51,99,83,49,30.03,29.92,10,2,17,0.00
2013-10-23,85,64,47,57,46,22,99,64,11,30.12,30.01,7,1,10,0.00
2013-10-24,87,66,49,58,50,37,99,65,18,30.19,30.08,8,1,11,0.00
2013-10-25,74,61,50,57,43,32,93,57,24,30.36,30.18,12,3,20,0.00
2013-10-26,82,61,44,54,42,26,93,57,13,30.26,30.09,6,1,9,0.00
2013-10-27,80,65,56,67,60,52,99,85,52,30.09,29.97,8,1,14,0.00
2013-10-28,86,70,58,67,62,57,99,79,41,30.13,29.99,4,1,8,0.00
2013-10-29,84,73,64,71,63,57,99,75,42,30.15,30.07,7,2,14,0.00
2013-10-30,82,74,68,69,66,63,97,79,57,30.09,29.87,13,3,23,0.00
2013-10-31,79,72,62,74,68,62,99,88,74,29.88,29.74,19,4,27,0.00
2013-11-1,84,66,57,66,53,28,99,72,15,29.92,29.81,5,1,8,0.00
2013-11-2,74,62,51,60,39,10,99,53,9,30.18,29.88,13,3,22,0.00
2013-11-3,69,54,43,47,38,25,94,61,21,30.22,30.09,10,2,17,0.00
2013-11-4,78,64,48,56,48,43,95,61,34,30.14,30.03,9,2,16,0.00
2013-11-5,81,70,60,66,61,56,99,75,51,30.09,29.99,12,3,19,0.00
2013-11-6,87,70,57,71,66,52,99,87,45,30.16,29.98,11,3,17,0.00
2013-11-7,68,56,48,52,37,21,83,54,19,30.41,30.15,15,5,29,0.00
2013-11-8,68,54,44,46,36,15,90,58,13,30.41,30.25,11,2,17,0.00
2013-11-9,74,58,45,48,39,16,97,60,12,30.29,30.20,5,1,8,0.00
2013-12-24,61,46,38,60,26,-7,95,52,12,30.47,29.76,12,1,47,14.18
2013-12-25,59,42,29,35,27,14,92,62,19,30.44,30.34,5,1,8,0.00
2013-12-26,62,44,34,38,27,3,90,63,10,30.44,30.34,8,1,14,0.00